Location: Famechon
(49.7599°N, 2.0615°E)
Time: 07:08:49
(UTC+00:00)

Cosmos 1892 Rocket - Pass Details

Date: 03 February 2023
Orbit: 605 x 631 km, 82.5° (Epoch: 24 March)

Event Time Altitude Azimuth Distance (km) Brightness Sun altitude
Rises 18:41:37 0° 189° (S) 2,898 7.2 -18.2°
Reaches altitude 10° 18:43:51 10° 190° (S) 1,992 6.3 -18.6°
Maximum altitude 18:48:16 86° 280° (W) 629 3.5 -19.3°
Drops below altitude 10° 18:52:41 10° 9° (N) 1,991 6.0 -20.0°
Sets 18:54:55 0° 10° (N) 2,897 6.9 -20.4°
